Weather History for Sheboygan, WI

Change the Weather History Date:

Sunday, January 6, 2013

  Actual Average Record
Temperature  
Mean Temperature 26 °F -  
Max Temperature 35 °F 27 °F 46 °F (2012)
Min Temperature 14 °F 13 °F -17 °F (2014)
Degree Days  
Heating Degree Days 40    
Moisture  
Dew Point 22 °F    
Average Humidity 78    
Maximum Humidity 92    
Minimum Humidity 59    
Precipitation  
Precipitation 0.00 in - - ()
Sea Level Pressure  
Sea Level Pressure 30.05 in    
Wind  
Wind Speed 10 mph (WNW)    
Max Wind Speed 16 mph    
Max Gust Speed 24 mph    
Visibility 9 miles    
Events      
Averages and records for this station are not official NWS values.
T = Trace of Precipitation, MM = Missing Value Source: NWS Daily Summary

Daily Weather History Graph

Daily Weather History Graph

Search for Another Location

Airport:

Trip Planner

Search our weather history database for the weather conditions in past years. The results will help you decide how hot, cold, wet, or windy it might be!

Date:

Astronomy

Jan. 06, 2013 Rise Set
Actual Time 7:25 AM CST 4:29 PM CST
Civil Twilight 6:52 AM CST 5:02 PM CST
Nautical Twilight 6:16 AM CST 5:38 PM CST
Astronomical Twilight 5:41 AM CST 6:13 PM CST
Moon 1:34 AM CST (1/6) 12:00 PM CST (1/6)
Length of Visible Light 10h 09m
Length of Day
9h 04m
Waning Crescent, 33% of the Moon is Illuminated
Jan 6
Waning Crescent
Jan 11
New
Jan 18
First Quarter
Jan 26
Full
Feb 3
Last Quarter

Hourly Weather History & Observations

Time (CST) Temp. Windchill Dew Point Humidity Pressure Visibility Wind Dir Wind Speed Gust Speed Precip Events Conditions
12:16 AM 35.6 °F 29.2 °F 30.2 °F 81% 29.83 in 10.0 mi SW 8.1 mph - N/A   Overcast
12:26 AM 35.6 °F 28.6 °F 30.2 °F 81% 29.82 in 10.0 mi SW 9.2 mph - N/A   Overcast
12:53 AM 35.1 °F 27.4 °F 30.9 °F 85% 29.85 in 9.0 mi WSW 10.4 mph - N/A   Overcast
1:16 AM 35.6 °F 28.6 °F 30.2 °F 81% 29.82 in 9.0 mi West 9.2 mph - N/A   Overcast
1:53 AM 35.1 °F 27.4 °F 30.0 °F 82% 29.86 in 10.0 mi West 10.4 mph - N/A   Overcast
2:00 AM 33.8 °F 25.3 °F 28.4 °F 81% 29.83 in 10.0 mi WNW 11.5 mph - N/A   Overcast
2:53 AM 30.9 °F 22.8 °F 25.0 °F 79% 29.87 in 10.0 mi WNW 9.2 mph - N/A   Overcast
4:53 AM 26.1 °F 13.6 °F 19.0 °F 75% 29.90 in 8.0 mi WNW 16.1 mph 24.2 mph N/A   Overcast
5:25 AM 24.8 °F 12.9 °F 17.6 °F 74% 29.88 in 8.0 mi WNW 13.8 mph 20.7 mph N/A   Overcast
5:53 AM 24.1 °F 12.5 °F 17.1 °F 75% 29.92 in 8.0 mi WNW 12.7 mph - N/A   Overcast
6:53 AM 24.1 °F 13.1 °F 18.0 °F 77% 29.94 in 8.0 mi WNW 11.5 mph - N/A   Overcast
7:53 AM 25.0 °F 12.6 °F 19.9 °F 81% 29.97 in 7.0 mi WNW 15.0 mph 23.0 mph N/A   Overcast
8:53 AM 26.1 °F 14.0 °F 21.9 °F 84% 30.00 in 8.0 mi WNW 15.0 mph 23.0 mph N/A   Overcast
9:53 AM 27.0 °F 14.7 °F 21.9 °F 81% 30.04 in 10.0 mi WNW 16.1 mph - N/A   Overcast
10:53 AM 28.0 °F 17.5 °F 23.0 °F 81% 30.06 in 10.0 mi NW 12.7 mph - N/A   Overcast
11:36 AM 30.2 °F 19.8 °F 23.0 °F 75% 30.03 in 10.0 mi NW 13.8 mph - N/A   Scattered Clouds
11:53 AM 30.9 °F 20.7 °F 23.0 °F 72% 30.06 in 10.0 mi NW 13.8 mph - N/A   Clear
12:53 PM 30.9 °F 19.8 °F 21.0 °F 67% 30.09 in 10.0 mi NNW 16.1 mph 24.2 mph N/A   Clear
1:53 PM 32.0 °F 24.2 °F 21.9 °F 66% 30.11 in 10.0 mi NNW 9.2 mph - N/A   Scattered Clouds
2:53 PM 32.0 °F 24.2 °F 19.0 °F 59% 30.15 in 10.0 mi NW 9.2 mph - N/A   Clear
3:53 PM 28.9 °F 22.8 °F 18.0 °F 64% 30.18 in 10.0 mi WNW 5.8 mph - N/A   Clear
4:53 PM 28.9 °F 25.2 °F 19.9 °F 69% 30.22 in 10.0 mi WNW 3.5 mph - N/A   Overcast
5:53 PM 28.0 °F 21.7 °F 21.0 °F 75% 30.24 in 10.0 mi West 5.8 mph - N/A   Overcast
6:53 PM 28.0 °F 19.3 °F 21.0 °F 75% 30.26 in 10.0 mi West 9.2 mph - N/A   Overcast
7:53 PM 25.0 °F - 19.0 °F 78% 30.26 in 10.0 mi Calm Calm - N/A   Partly Cloudy
8:53 PM 19.9 °F 11.1 °F 16.0 °F 85% 30.27 in 10.0 mi WSW 6.9 mph - N/A   Clear
9:53 PM 19.9 °F 13.4 °F 16.0 °F 85% 30.28 in 10.0 mi SW 4.6 mph - N/A   Clear
10:53 PM 16.0 °F 6.3 °F 14.0 °F 92% 30.30 in 9.0 mi WSW 6.9 mph - N/A   Clear
11:53 PM 14.0 °F 2.9 °F 10.9 °F 88% 30.28 in 7.0 mi WSW 8.1 mph - N/A   Clear